Weather Roundup
Issued by NWS Corpus Christi, TX

Home | Current Version | Previous Version | Text Only | Print | Product List | Glossary On
Versions: 1 2 3 4 5 6 7 8 9 10 11 12 13 14 15 16 17 18 19 20 21 22 23 24 25 26 27 28 29 30 31 32 33 34 35 36 37 38 39 40 41 42 43 44 45 46 47 48 49 50
000
ASUS44 KCRP 261310
HRRCRP

SOUTH TEXAS REGIONAL WEATHER ROUNDUP
NATIONAL WEATHER SERVICE CORPUS CHRISTI TX
700 AM CST SUN FEB 26 2017


TXZ229>244-261400-
...CORPUS CHRISTI AREA OBSERVATIONS...

CITY           SKY/WX    TMP DP  RH WIND       PRES   REMARKS
CORPUS CHRISTI PTCLDY    64  62  93 SE9       29.94F
NAS CORPUS CHR PTCLDY    66  66 100 SE10      29.94F
ROCKPORT       CLEAR     67  61  81 SE12      29.95S
KINGSVILLE NAS CLOUDY    62  61  96 E3        29.94S
ALICE          CLOUDY    60  57  89 SE5       29.94S
ORANGE GROVE   MOCLDY    60  58  92 E3        29.95S
FALFURRIAS     CLOUDY    62  59  88 E3        29.93F
$$

...VICTORIA AREA OBSERVATIONS...

CITY           SKY/WX    TMP DP  RH WIND       PRES   REMARKS
VICTORIA       MOCLDY    54  52  93 SE6       29.97F
BEEVILLE       CLOUDY    59  59 100 E5        29.95S
PLEASANTON     CLOUDY    51  46  84 CALM      29.97R
SAN ANTONIO    CLOUDY    53  44  71 E5        29.97S
$$

...LAREDO AREA OBSERVATIONS...

CITY           SKY/WX    TMP DP  RH WIND       PRES   REMARKS
LAREDO         CLOUDY    62  57  83 CALM      29.93S
COTULLA        CLOUDY    56  47  71 E5        29.94F
DEL RIO        CLOUDY    52  48  86 E8        29.94R
MCALLEN        CLOUDY    66  59  78 NE3       29.93S
HEBBRONVILLE   CLOUDY    60  56  87 SE8       29.94S
$$

...OTHER TEXAS OBSERVATIONS...

CITY           SKY/WX    TMP DP  RH WIND       PRES   REMARKS
BROWNSVILLE    PTCLDY    69  66  90 SE7       29.94S
HOUSTON        PTCLDY    48  41  76 E5        30.03R
COL. STATION   CLEAR     46  35  65 E6        30.02R
AUSTIN         CLOUDY    43  39  86 CALM      29.99R
WACO           CLEAR     43  36  76 SE12      29.99S
FORT WORTH     PTCLDY    43  32  65 SE12      29.95F
WICHITA FALLS  PTCLDY    34  27  75 S3        29.91R
LUBBOCK        MOCLDY    34  27  75 W9        29.85R
EL PASO        MOCLDY    43   8  23 E6        29.92S
$$

...MARINE OBSERVATIONS...

STATION/POSITION TIME  SKY/WX   TEMP    WIND        PRES    VSBY  WAVE   SWELL
                                AIR SEA DIR/SP/G                  HT/PER HT/PER
                 (UTC)          (F)     (DEG/KT/KT) (MB)    (MI)  (FT/S) (FT/S)
PORT ARANSAS     1200            67 67  110/ 12/ 14 1014.1F
BUOY 90 E PORT A 1150            69 70  120/ 12/ 16 1016.3          3/ 6
BUOY 45 SE BAFFI 1150            72     130/ 17/ 21 1013.5          5/ 7   2/11
BUOY 200 E PT IS 1150            72 74  110/ 16/ 17 1015.8          5/ 7
BUOY 15 E GALVES 1150            65 65  130/ 16/ 17 1016.9          3/ 5
$$



USA.gov is the U.S. government's official web portal to all federal, state and local government web resources and services.